This is the latest recevied weather packets stored in our database for station/object DO1BDB-12. If no packets are shown the sender has not sent any weather packets the latest 10 day(s).
| Time | Temp. | Humidity | Pressure | Rain* | Wind** | Luminosity | Snow |
|---|---|---|---|---|---|---|---|
| 1778238302 | 15° C | 35% | 102.2 hPa | - | - | - | - |
| 1778238236 | 15.56° C | 33% | 102.2 hPa | - | - | - | - |
| 1778238171 | 18.33° C | 34% | 102.2 hPa | - | - | - | - |
| 1778238105 | 17.78° C | 35% | 102.2 hPa | - | - | - | - |
| 1778238039 | 17.22° C | 35% | 102.2 hPa | - | - | - | - |
| 1778237973 | 17.22° C | 37% | 102.2 hPa | - | - | - | - |
| 1778237907 | 15° C | 35% | 102.2 hPa | - | - | - | - |
| 1778237841 | 15° C | 35% | 102.2 hPa | - | - | - | - |
| 1778237776 | 16.11° C | 35% | 102.2 hPa | - | - | - | - |
| 1778237710 | 16.67° C | 36% | 102.2 hPa | - | - | - | - |
| 1778237644 | 15.56° C | 37% | 102.2 hPa | - | - | - | - |
| 1778237578 | 16.11° C | 36% | 102.2 hPa | - | - | - | - |
| 1778237512 | 15° C | 36% | 102.2 hPa | - | - | - | - |
| 1778237446 | 15.56° C | 35% | 102.2 hPa | - | - | - | - |
| 1778237381 | 15.56° C | 36% | 102.2 hPa | - | - | - | - |
| 1778237315 | 15° C | 37% | 102.2 hPa | - | - | - | - |
| 1778237249 | 16.67° C | 34% | 102.2 hPa | - | - | - | - |
| 1778237183 | 17.78° C | 37% | 102.2 hPa | - | - | - | - |
| 1778237117 | 17.78° C | 36% | 102.2 hPa | - | - | - | - |
| 1778237051 | 15.56° C | 36% | 102.2 hPa | - | - | - | - |
| 1778236985 | 15.56° C | 38% | 102.2 hPa | - | - | - | - |
| 1778236920 | 15.56° C | 38% | 102.2 hPa | - | - | - | - |
| 1778236854 | 15.56° C | 40% | 102.2 hPa | - | - | - | - |
| 1778236788 | 16.67° C | 38% | 102.2 hPa | - | - | - | - |
| 1778236722 | 16.67° C | 36% | 102.2 hPa | - | - | - | - |
* Rain since midnight (hover to see other rain measurements)
** Current wind speed in m/s (hover to see current wind gust speed)